Tracking 25703 objects as of 2-Jul-2022
HD Live streaming from Space Station
objects crossing your sky now

NOAA 16 DEB

Track NOAA 16 DEB now!
10-day predictions


NORAD ID: 41370
Int'l Code: 2000-055JP
Perigee: 713.0 km
Apogee: 832.1 km
Inclination: 99.0 °
Period: 100.1 minutes
Semi major axis: 7143 km
RCS: Unknown
Launch date: September 21, 2000
Source: United States (US)
Launch site: AIR FORCE WESTERN TEST RANGE (AFWTR)

Note: This is SATELLITE DEBRIS
aabbcc
Your satellite tracking list
Your tracking list is empty




NASA's NSSDC Master Catalog

Two Line Element Set (TLE):
1 41370U 00055JP  22181.92323230  .00001904  00000-0  62175-3 0  9991
2 41370  98.9508 353.3816 0083375 265.3587  93.8073 14.37902909344361
Source of the keplerian elements: AFSPC